Weather History for Hoquiam, WA

Change the Weather History Date:

Wednesday, November 13, 2013

  Actual Average Record
Temperature  
Mean Temperature 51 °F 46 °F  
Max Temperature 55 °F 52 °F 61 °F (1969)
Min Temperature 47 °F 41 °F 18 °F (1955)
Degree Days  
Heating Degree Days 14 19  
Month to date heating degree days 208 226  
Cooling Degree Days 0 0  
Month to date cooling degree days 0 0  
Year to date cooling degree days 20 23  
Growing Degree Days 2 (Base 50)    
Moisture  
Dew Point 50 °F    
Average Humidity 90    
Maximum Humidity 100    
Minimum Humidity 80    
Precipitation  
Precipitation 0.07 in 0.38 in 3.11 in (1998)
Month to date precipitation 3.00 4.66  
Year to date precipitation 47.13 51.08  
Sea Level Pressure  
Sea Level Pressure 30.43 in    
Wind  
Wind Speed 4 mph (SW)    
Max Wind Speed 13 mph    
Max Gust Speed 15 mph    
Visibility 4 miles    
Events Fog , Rain    
T = Trace of Precipitation, MM = Missing Value Source: NWS Daily Summary

Daily Weather History Graph

Daily Weather History Graph

Search for Another Location

Airport:

Trip Planner

Search our weather history database for the weather conditions in past years. The results will help you decide how hot, cold, wet, or windy it might be!

Date:

Astronomy

Nov. 13, 2013 Rise Set
Actual Time 7:16 AM PST 4:42 PM PST
Civil Twilight 6:43 AM PST 5:15 PM PST
Nautical Twilight 6:06 AM PST 5:52 PM PST
Astronomical Twilight 5:30 AM PST 6:28 PM PST
Moon 2:45 PM PST (11/13) 3:01 AM PST (11/13)
Length of Visible Light 10h 32m
Length of Day
9h 26m
Waxing Gibbous, 85% of the Moon is Illuminated
Nov 13
Waxing Gibbous
Nov 17
Full
Nov 25
Last Quarter
Dec 2
New
Dec 9
First Quarter

Hourly Weather History & Observations

Time (PST) Temp. Dew Point Humidity Pressure Visibility Wind Dir Wind Speed Gust Speed Precip Events Conditions
12:45 AM 53.6 °F 51.8 °F 94% 30.39 in 1.8 mi South 11.5 mph - 0.07 in Rain Heavy Rain
12:53 AM 53.1 °F 52.0 °F 96% 30.40 in 2.5 mi South 10.4 mph - 0.07 in Rain Light Rain
12:55 AM 53.6 °F 51.8 °F 94% 30.39 in 4.0 mi South 10.4 mph - 0.00 in Rain Light Rain
1:03 AM 53.6 °F 51.8 °F 94% 30.39 in 6.0 mi SSW 6.9 mph - 0.00 in   Overcast
1:24 AM 53.6 °F 51.8 °F 94% 30.39 in 8.0 mi SSW 8.1 mph - 0.00 in   Overcast
1:41 AM 53.6 °F 51.8 °F 94% 30.39 in 6.0 mi SSW 11.5 mph - 0.00 in   Overcast
1:53 AM 53.1 °F 51.1 °F 93% 30.40 in 6.0 mi SSW 10.4 mph - 0.00 in   Overcast
2:13 AM 53.6 °F 51.8 °F 94% 30.40 in 5.0 mi SW 11.5 mph - N/A   Overcast
2:22 AM 53.6 °F 51.8 °F 94% 30.40 in 5.0 mi SW 11.5 mph - N/A   Overcast
2:53 AM 53.1 °F 52.0 °F 96% 30.41 in 5.0 mi SW 8.1 mph - N/A   Overcast
3:20 AM 51.8 °F 51.8 °F 100% 30.40 in 4.0 mi West 4.6 mph - N/A   Overcast
3:53 AM 52.0 °F 52.0 °F 100% 30.42 in 3.0 mi SW 4.6 mph - N/A   Overcast
4:06 AM 51.8 °F 51.8 °F 100% 30.41 in 2.0 mi SW 5.8 mph - N/A   Overcast
4:33 AM 51.8 °F 51.8 °F 100% 30.42 in 1.2 mi West 4.6 mph - N/A   Overcast
4:53 AM 51.1 °F 51.1 °F 100% 30.44 in 1.5 mi WSW 3.5 mph - N/A   Overcast
5:16 AM 51.8 °F 51.8 °F 100% 30.43 in 0.8 mi Calm Calm - N/A   Overcast
5:24 AM 51.8 °F 51.8 °F 100% 30.42 in 1.5 mi Calm Calm - N/A   Overcast
5:32 AM 51.8 °F 51.8 °F 100% 30.42 in 2.5 mi Calm Calm - N/A   Overcast
5:50 AM 51.8 °F 50.0 °F 94% 30.43 in 1.2 mi Calm Calm - N/A   Overcast
5:53 AM 51.1 °F 50.0 °F 96% 30.44 in 1.2 mi Calm Calm - N/A   Overcast
6:18 AM 50.0 °F 48.2 °F 94% 30.43 in 2.5 mi SW 4.6 mph - N/A   Overcast
6:23 AM 48.2 °F 48.2 °F 100% 30.43 in 1.8 mi SW 5.8 mph - N/A   Overcast
6:36 AM 48.2 °F 48.2 °F 100% 30.44 in 3.0 mi SW 4.6 mph - N/A   Overcast
6:47 AM 48.2 °F 48.2 °F 100% 30.44 in 1.8 mi West 3.5 mph - N/A   Overcast
6:53 AM 48.9 °F 48.9 °F 100% 30.45 in 0.8 mi Calm Calm - N/A   Mist
7:05 AM 48.2 °F 48.2 °F 100% 30.44 in 0.2 mi Calm Calm - N/A Fog Fog
7:45 AM 48.2 °F 48.2 °F 100% 30.44 in 1.0 mi Calm Calm - N/A   Overcast
7:53 AM 48.0 °F 48.0 °F 100% 30.45 in 2.0 mi Calm Calm - N/A   Overcast
8:02 AM 48.2 °F 48.2 °F 100% 30.44 in 0.8 mi Calm Calm - N/A   Overcast
8:19 AM 48.2 °F 48.2 °F 100% 30.44 in 1.8 mi Calm Calm - N/A   Overcast
8:32 AM 50.0 °F 50.0 °F 100% 30.45 in 2.5 mi Calm Calm - N/A   Overcast
8:53 AM 50.0 °F 50.0 °F 100% 30.47 in 1.5 mi Calm Calm - N/A   Overcast
8:58 AM 51.8 °F 51.8 °F 100% 30.45 in 3.0 mi Calm Calm - N/A   Overcast
9:08 AM 51.8 °F 51.8 °F 100% 30.45 in 4.0 mi Calm Calm - N/A   Overcast
9:53 AM 52.0 °F 51.1 °F 97% 30.46 in 4.0 mi Calm Calm - N/A   Overcast
10:17 AM 53.6 °F 51.8 °F 94% 30.45 in 4.0 mi SSW 5.8 mph - N/A   Overcast
10:24 AM 53.6 °F 51.8 °F 94% 30.46 in 4.0 mi SW 5.8 mph - N/A   Mostly Cloudy
10:45 AM 53.6 °F 51.8 °F 94% 30.47 in 4.0 mi SSW 8.1 mph - N/A   Scattered Clouds
10:53 AM 54.0 °F 52.0 °F 93% 30.48 in 4.0 mi SSW 9.2 mph - N/A   Mostly Cloudy
11:22 AM 53.6 °F 51.8 °F 94% 30.46 in 4.0 mi SSW 6.9 mph - N/A   Mostly Cloudy
11:30 AM 53.6 °F 51.8 °F 94% 30.46 in 0.8 mi SSW 8.1 mph - N/A   Scattered Clouds
11:40 AM 53.6 °F 51.8 °F 94% 30.46 in 2.0 mi SSW 9.2 mph - N/A   Partly Cloudy
11:53 AM 55.0 °F 52.0 °F 89% 30.47 in 4.0 mi SW 8.1 mph - N/A   Clear
12:53 PM 55.0 °F 52.0 °F 89% 30.45 in 4.0 mi SSW 8.1 mph - N/A   Scattered Clouds
1:53 PM 55.0 °F 51.1 °F 86% 30.44 in 5.0 mi SW 8.1 mph - N/A   Partly Cloudy
2:53 PM 54.0 °F 50.0 °F 86% 30.44 in 5.0 mi SW 9.2 mph - N/A   Clear
3:53 PM 52.0 °F 50.0 °F 93% 30.44 in 4.0 mi SW 8.1 mph - N/A   Overcast
4:53 PM 52.0 °F 50.0 °F 93% 30.44 in 6.0 mi WSW 6.9 mph - N/A   Overcast
5:53 PM 52.0 °F 50.0 °F 93% 30.43 in 6.0 mi NW 3.5 mph - N/A   Overcast
6:53 PM 52.0 °F 46.9 °F 83% 30.41 in 7.0 mi NW 4.6 mph - N/A   Overcast
7:53 PM 52.0 °F 46.9 °F 83% 30.40 in 7.0 mi West 4.6 mph - N/A   Overcast
8:53 PM 50.0 °F 45.0 °F 83% 30.40 in 9.0 mi WSW 3.5 mph - N/A   Overcast
9:53 PM 50.0 °F 46.9 °F 89% 30.38 in 8.0 mi Calm Calm - N/A   Overcast
10:53 PM 48.0 °F 46.0 °F 93% 30.36 in 7.0 mi Calm Calm - N/A   Scattered Clouds
11:53 PM 48.9 °F 46.0 °F 90% 30.34 in 8.0 mi WNW 4.6 mph - N/A   Partly Cloudy